Regional Weather Roundup
Issued by NWS

Home | Current Version | Previous Version | Text Only | Print | Product List | Glossary Off
Versions: 1 2 3 4 5 6 7 8 9 10 11 12 13 14 15 16 17 18 19 20 21 22 23 24 25 26 27 28 29 30 31 32 33 34 35 36 37 38 39 40 41 42 43 44 45 46 47 48 49 50

000
ASUS43 KBIS 271810
RWRND

NORTH DAKOTA REGIONAL WEATHER ROUNDUP
NATIONAL WEATHER SERVICE BISMARCK ND
100 PM CDT MON MAR 27 2017

NOTE: "FAIR" INDICATES FEW OR NO CLOUDS BELOW 12,000 FEET WITH NO
SIGNIFICANT WEATHER AND/OR OBSTRUCTIONS TO VISIBILITY.


NDZ001>003-009>011-017-271900-
NORTHWEST NORTH DAKOTA

CITY           SKY/WX    TMP DP  RH WIND       PRES   REMARKS
WILLISTON      PTSUNNY   54  24  31 E10       29.92R
6HR MIN TEMP:  29; 6HR MAX TEMP:  55;

MINOT          FAIR      42  37  82 NW6       29.94R
MINOT AFB      PTSUNNY   39  38  97 N9        29.94S
$$

NDZ018>021-031>035-040>046-271900-
SOUTHWEST NORTH DAKOTA

CITY           SKY/WX    TMP DP  RH WIND       PRES   REMARKS
BISMARCK       FAIR      61  38  42 VRB3      29.93S
6HR MIN TEMP:  29; 6HR MAX TEMP:  61;

DICKINSON      FAIR      55  33  43 S8        29.88S
GARRISON         N/A     53  37  54 NE3       29.91F
6HR MIN TEMP:  29; 6HR MAX TEMP:  53;

HETTINGER ARPT SUNNY     56  34  43 SE8       29.90F
$$

NDZ004>008-012>016-024-026-027-054-271900-
NORTHEAST NORTH DAKOTA

CITY           SKY/WX    TMP DP  RH WIND       PRES   REMARKS
GRAND FORKS    CLOUDY    39  39 100 S6        30.00F FOG
GRND FRKS AFB  CLOUDY    39  39 100 S7        29.99F FOG
DEVILS LAKE    FAIR      45  41  86 SE6       29.97S
$$

NDZ022-023-025-028>030-036>039-047>053-271900-
SOUTHEAST NORTH DAKOTA

CITY           SKY/WX    TMP DP  RH WIND       PRES   REMARKS
FARGO          SUNNY     51  43  74 NE5       29.98F
6HR MIN TEMP:  30; 6HR MAX TEMP:  51;

JAMESTOWN      FAIR      54  39  57 S8        29.95S
$$




USA.gov is the U.S. government's official web portal to all federal, state and local government web resources and services.